Powrót do katalogu

SL-12 R/B

AUX MOTOR

AktywnyHEO
NORAD 32280·ROCKET BODY·🇷🇺 Russia

Wystrzelony Oct 26, 2007 z Baikonur Cosmodrome

Loading…

Następne Przeloty (najbliższe 24 godziny)

TLE

ŚwieżeSource: Space-Track

Epoka: Sep 13, 2026, 06:06 UTC

1 32280U 07052F   26256.25433481  .00000026  00000-0  25932-3 0  9992
2 32280  65.1046 293.6634 5659377 214.5730  90.5097  4.21934824196739

Śledź SL-12 R/B w czasie rzeczywistym z AllMySat

Download on the App Store